DW6233 Weather Reports


time (UTC)temp
C
wind
direction
speed
KPH
gust
KPH
rain 1hr
cm
rain 24hr
cm
rain mn
cm
humidity
%
barometer
mb
20260506073052 16 2 19.3 35.4 0.00 0.05 0.05 92 1026.5
20260506071601 16 15 19.3 35.4 0.00 0.05 0.05 92 1026.6
20260506061544 16 15 19.3 33.8 0.00 0.05 0.05 91 1026.3
20260506044538 16 27 30.6 45.1 0.00 0.05 0.05 89 1026.4
20260506043054 16 351 27.4 43.5 0.00 0.05 0.05 89 1026.4
20260506043026 16 349 29.0 43.5 0.00 0.05 0.05 88 1026.4
20260506041547 16 356 29.0 45.1 0.00 0.05 0.05 89 1026.4
20260506040059 16 25 27.4 40.2 0.00 0.05 0.05 89 1026.5
20260506034531 16 30 22.5 48.3 0.00 0.05 0.05 89 1026.4
20260506033054 16 26 38.6 49.9 0.00 0.05 0.05 88 1026.4
20260506031539 16 19 25.7 43.5 0.00 0.05 0.05 88 1026.3
20260506030030 16 38 24.1 45.1 0.00 0.05 0.05 88 1026.2
20260506024526 16 29 29.0 46.7 0.00 0.05 0.05 87 1026.3
20260506023042 16 341 32.2 46.7 0.00 0.05 0.05 86 1026.3
20260506021548 16 20 24.1 40.2 0.00 0.05 0.05 85 1026.1
20260506020019 17 23 30.6 49.9 0.00 0.05 0.05 84 1026.2
20260506014549 16 18 29.0 46.7 0.00 0.05 0.05 85 1026.3
20260506013044 16 36 25.7 43.5 0.00 0.05 0.05 85 1026.4
20260506011524 16 19 32.2 49.9 0.00 0.05 0.05 84 1026.6
20260506010003 16 20 33.8 53.1 0.00 0.05 0.05 84 1026.7
20260506004539 17 2 29.0 43.5 0.00 0.05 0.05 83 1026.9
20260506003027 16 6 25.7 40.2 0.00 0.05 0.05 83 1027.1
20260506001521 16 16 22.5 41.8 0.00 0.05 0.05 84 1027.1
20260506000053 16 15 17.7 38.6 0.00 0.05 0.05 84 1027.4
20260505234612 16 10 20.9 35.4 0.00 0.05 0.05 84 1027.5
20260505233011 16 27 24.1 40.2 0.00 0.05 0.05 86 1027.5
20260505231526 16 17 24.1 41.8 0.00 0.05 0.05 87 1027.7
20260505230032 15 7 22.5 35.4 0.00 0.05 0.05 87 1027.7
20260505224533 15 53 19.3 32.2 0.00 0.05 0.05 89 1027.8
20260505223030 15 13 24.1 40.2 0.00 0.05 0.05 90 1027.7
20260505221528 14 51 19.3 32.2 0.05 0.05 0.05 93 1027.8
20260505220023 14 15 20.9 25.7 0.05 0.05 0.05 93 1027.9
20260505214557 14 31 19.3 27.4 0.05 0.05 0.05 93 1027.9
20260505213031 14 6 17.7 27.4 0.05 0.05 0.05 94 1028.1
20260505211540 14 55 17.7 30.6 0.03 0.03 0.03 93 1028.1
20260505204524 14 29 11.3 24.1 0.00 0.00 0.00 92 1028.3
20260505203006 14 19 14.5 35.4 0.00 0.00 0.00 90 1028.4
20260505201507 15 32 20.9 33.8 0.00 0.00 0.00 88 1028.3
20260505200003 15 46 16.1 32.2 0.00 0.00 0.00 86 1028.0
20260505194502 15 5 16.1 27.4 0.00 0.00 0.00 86 1028.0
20260505193050 15 112 12.9 20.9 0.00 0.00 0.00 85 1028.0
20260505191503 15 67 14.5 27.4 0.00 0.00 0.00 85 1027.9
20260505190003 14 30 14.5 27.4 0.00 0.00 0.00 85 1027.9
20260505184601 14 26 16.1 25.7 0.00 0.00 0.00 86 1028.0
20260505183102 14 45 16.1 25.7 0.00 0.00 0.00 86 1028.0
20260505181559 14 23 6.4 19.3 0.00 0.00 0.00 85 1028.0
20260505174555 14 33 8.0 20.9 0.00 0.00 0.00 85 1028.2
20260505173054 14 20 8.0 30.6 0.00 0.00 0.00 83 1028.3
20260505171556 15 352 12.9 19.3 0.00 0.00 0.00 81 1028.3
20260505170053 14 64 9.7 24.1 0.00 0.00 0.00 81 1028.3
20260505164551 14 65 14.5 24.1 0.00 0.00 0.00 83 1028.5
20260505163050 14 5 11.3 24.1 0.00 0.00 0.00 83 1028.5
20260505161544 15 84 17.7 27.4 0.00 0.00 0.00 80 1028.8
20260505151545 15 354 16.1 30.6 0.00 0.00 0.00 77 1029.3
20260505140109 15 344 16.1 24.1 0.00 0.00 0.00 73 1029.9
20260505124513 14 345 9.7 14.5 0.00 0.00 0.00 76 1030.3
20260505123038 14 329 0.0 4.8 0.00 0.00 0.00 75 1030.5
20260505121524 14 55 3.2 9.7 0.00 0.00 0.00 75 1030.5
20260505120106 14 5 8.0 17.7 0.00 0.00 0.00 75 1030.5
20260505114509 13 36 6.4 14.5 0.00 0.00 0.00 76 1030.6
20260505113105 13 54 4.8 9.7 0.00 0.00 0.00 77 1030.6
20260505111525 13 8 4.8 12.9 0.00 0.00 0.00 78 1030.6
20260505101533 13 42 8.0 17.7 0.00 0.00 0.00 73 1031.2
20260505100024 13 31 8.0 16.1 0.00 0.00 0.00 72 1031.2
20260505094527 13 53 8.0 17.7 0.00 0.00 0.00 71 1031.1
20260505093032 13 25 6.4 16.1 0.00 0.00 0.00 72 1031.1
20260505091525 13 17 4.8 16.1 0.00 0.00 0.00 72 1031.1
20260505090029 13 45 8.0 14.5 0.00 0.00 0.00 72 1031.0
20260505084527 13 95 4.8 16.1 0.00 0.00 0.00 73 1031.1
20260505083020 13 34 11.3 22.5 0.00 0.00 0.00 72 1031.2
20260505081521 13 44 9.7 20.9 0.00 0.00 0.00 73 1031.3
20260505080026 13 41 6.4 20.9 0.00 0.00 0.00 74 1031.3
20260505074518 13 34 0.0 9.7 0.00 0.00 0.00 75 1031.4